Data supplied by UK-AIR on 8/11/2015
All Data GMT hour ending 
Status: R =Ratified P=Provisional,P*=As supplied
,,Billingham,,,,,,,,,,,,,,,,,,,,,,,
Date,time,"Nitric oxide",status,unit,"Nitrogen dioxide",status,unit,"Nitrogen oxides as nitrogen dioxide",status,unit
 
01-01-2014,01:00,0.47106,R,ugm-3,11.01728,R,ugm-3,11.73956,R,ugm-3
01-01-2014,02:00,0.47106,R,ugm-3,13.14334,R,ugm-3,13.86563,R,ugm-3
01-01-2014,03:00,0.57438,R,ugm-3,12.15298,R,ugm-3,13.03369,R,ugm-3
01-01-2014,04:00,0.44186,R,ugm-3,11.17761,R,ugm-3,11.85511,R,ugm-3
01-01-2014,05:00,0.39758,R,ugm-3,7.77909,R,ugm-3,8.38870,R,ugm-3
01-01-2014,06:00,0.39758,R,ugm-3,8.05641,R,ugm-3,8.66602,R,ugm-3
01-01-2014,07:00,1.32557,R,ugm-3,12.11043,R,ugm-3,14.14294,R,ugm-3
01-01-2014,08:00,2.51892,R,ugm-3,18.80800,R,ugm-3,22.67030,R,ugm-3
01-01-2014,09:00,2.43005,R,ugm-3,17.28039,R,ugm-3,21.00642,R,ugm-3
01-01-2014,10:00,1.63490,R,ugm-3,12.74538,R,ugm-3,15.25219,R,ugm-3
01-01-2014,11:00,2.43036,R,ugm-3,13.25888,R,ugm-3,16.98539,R,ugm-3
01-01-2014,12:00,0.97196,R,ugm-3,12.37531,R,ugm-3,13.86563,R,ugm-3
01-01-2014,13:00,0.92799,R,ugm-3,11.33348,R,ugm-3,12.75638,R,ugm-3
01-01-2014,14:00,1.45809,R,ugm-3,8.78746,R,ugm-3,11.02317,R,ugm-3
01-01-2014,15:00,1.45809,R,ugm-3,10.03537,R,ugm-3,12.27108,R,ugm-3
01-01-2014,16:00,3.00443,R,ugm-3,11.26941,R,ugm-3,15.87614,R,ugm-3
01-01-2014,17:00,6.49500,R,ugm-3,22.97199,R,ugm-3,32.93086,R,ugm-3
01-01-2014,18:00,20.14888,R,ugm-3,45.57440,R,ugm-3,76.46892,R,ugm-3
01-01-2014,19:00,16.30439,R,ugm-3,41.34729,R,ugm-3,66.34702,R,ugm-3
01-01-2014,20:00,13.38821,R,ugm-3,37.98464,R,ugm-3,58.51294,R,ugm-3
01-01-2014,21:00,6.53928,R,ugm-3,25.67723,R,ugm-3,35.70398,R,ugm-3
01-01-2014,22:00,2.91619,R,ugm-3,15.28709,R,ugm-3,19.75852,R,ugm-3
01-01-2014,23:00,0.57438,R,ugm-3,7.64665,R,ugm-3,8.52736,R,ugm-3
01-01-2014,24:00,0.35330,R,ugm-3,6.32177,R,ugm-3,6.86348,R,ugm-3
02-01-2014,01:00,0.17712,R,ugm-3,2.14073,R,ugm-3,2.41230,R,ugm-3
02-01-2014,02:00,0.29519,R,ugm-3,2.88660,R,ugm-3,3.33923,R,ugm-3
02-01-2014,03:00,0.26568,R,ugm-3,1.88859,R,ugm-3,2.29596,R,ugm-3
02-01-2014,04:00,0.13284,R,ugm-3,2.02247,R,ugm-3,2.22615,R,ugm-3
02-01-2014,05:00,0.35423,R,ugm-3,3.14415,R,ugm-3,3.68730,R,ugm-3
02-01-2014,06:00,0.44279,R,ugm-3,7.18239,R,ugm-3,7.86133,R,ugm-3
02-01-2014,07:00,18.11017,R,ugm-3,46.32123,R,ugm-3,74.08977,R,ugm-3
02-01-2014,08:00,2.30252,R,ugm-3,22.07121,R,ugm-3,25.60168,R,ugm-3
02-01-2014,09:00,4.42792,R,ugm-3,25.28038,R,ugm-3,32.06976,R,ugm-3
02-01-2014,10:00,2.03684,R,ugm-3,17.67724,R,ugm-3,20.80035,R,ugm-3
02-01-2014,11:00,1.50549,R,ugm-3,13.13505,R,ugm-3,15.44344,R,ugm-3
02-01-2014,12:00,3.27666,R,ugm-3,15.49794,R,ugm-3,20.52208,R,ugm-3
02-01-2014,13:00,2.16968,R,ugm-3,13.16087,R,ugm-3,16.48766,R,ugm-3
02-01-2014,14:00,4.02940,R,ugm-3,19.35259,R,ugm-3,25.53092,R,ugm-3
02-01-2014,15:00,2.30252,R,ugm-3,16.64401,R,ugm-3,20.17448,R,ugm-3
02-01-2014,16:00,5.80057,R,ugm-3,29.78528,R,ugm-3,38.67936,R,ugm-3
02-01-2014,17:00,2.03684,R,ugm-3,25.19097,R,ugm-3,28.31408,R,ugm-3
02-01-2014,18:00,0.97414,R,ugm-3,22.85485,R,ugm-3,24.34852,R,ugm-3
02-01-2014,19:00,3.85229,R,ugm-3,28.18164,R,ugm-3,34.08840,R,ugm-3
02-01-2014,20:00,1.68261,R,ugm-3,20.72481,R,ugm-3,23.30477,R,ugm-3
02-01-2014,21:00,9.21006,R,ugm-3,35.40946,R,ugm-3,49.53136,R,ugm-3
02-01-2014,22:00,5.88913,R,ugm-3,31.04083,R,ugm-3,40.07070,R,ugm-3
02-01-2014,23:00,6.15480,R,ugm-3,29.52039,R,ugm-3,38.95763,R,ugm-3
02-01-2014,24:00,7.74885,R,ugm-3,28.05016,R,ugm-3,39.93157,R,ugm-3
03-01-2014,01:00,2.60353,R,ugm-3,19.18365,R,ugm-3,23.17568,R,ugm-3
03-01-2014,02:00,11.18205,R,ugm-3,34.60414,R,ugm-3,51.74970,R,ugm-3
03-01-2014,03:00,0.57719,R,ugm-3,10.56322,R,ugm-3,11.44823,R,ugm-3
03-01-2014,04:00,0.53260,R,ugm-3,7.14128,R,ugm-3,7.95791,R,ugm-3
03-01-2014,05:00,0.35517,R,ugm-3,7.69255,R,ugm-3,8.23714,R,ugm-3
03-01-2014,06:00,0.39945,R,ugm-3,9.23020,R,ugm-3,9.84268,R,ugm-3
03-01-2014,07:00,5.63530,R,ugm-3,19.49124,R,ugm-3,28.13192,R,ugm-3
03-01-2014,08:00,3.23893,R,ugm-3,16.60385,R,ugm-3,21.57013,R,ugm-3
03-01-2014,09:00,4.21556,R,ugm-3,17.20055,R,ugm-3,23.66432,R,ugm-3
03-01-2014,10:00,8.12024,R,ugm-3,24.96530,R,ugm-3,37.41615,R,ugm-3
03-01-2014,11:00,12.64606,R,ugm-3,25.98370,R,ugm-3,45.37406,R,ugm-3
03-01-2014,12:00,6.78874,R,ugm-3,14.65118,R,ugm-3,25.06044,R,ugm-3
03-01-2014,13:00,1.37546,R,ugm-3,8.50154,R,ugm-3,10.61055,R,ugm-3
03-01-2014,14:00,1.46433,R,ugm-3,9.34256,R,ugm-3,11.58784,R,ugm-3
03-01-2014,15:00,1.73063,R,ugm-3,9.14366,R,ugm-3,11.79726,R,ugm-3
03-01-2014,16:00,2.30719,R,ugm-3,16.77597,R,ugm-3,20.31362,R,ugm-3
03-01-2014,17:00,0.93205,R,ugm-3,13.50942,R,ugm-3,14.93854,R,ugm-3
03-01-2014,18:00,0.79890,R,ugm-3,12.59668,R,ugm-3,13.82164,R,ugm-3
03-01-2014,19:00,0.79890,R,ugm-3,14.48145,R,ugm-3,15.70641,R,ugm-3
03-01-2014,20:00,0.66544,R,ugm-3,9.38081,R,ugm-3,10.40113,R,ugm-3
03-01-2014,21:00,0.66606,R,ugm-3,7.56489,R,ugm-3,8.58617,R,ugm-3
03-01-2014,22:00,0.57688,R,ugm-3,6.02629,R,ugm-3,6.91082,R,ugm-3
03-01-2014,23:00,0.53260,R,ugm-3,6.09418,R,ugm-3,6.91082,R,ugm-3
03-01-2014,24:00,0.53260,R,ugm-3,5.25651,R,ugm-3,6.07314,R,ugm-3
04-01-2014,01:00,0.35507,R,ugm-3,2.63096,R,ugm-3,3.17539,R,ugm-3
04-01-2014,02:00,0.23657,R,ugm-3,3.74659,R,ugm-3,4.10933,R,ugm-3
04-01-2014,03:00,0.26630,R,ugm-3,2.32321,R,ugm-3,2.73153,R,ugm-3
04-01-2014,04:00,0.17743,R,ugm-3,1.61941,R,ugm-3,1.89146,R,ugm-3
04-01-2014,05:00,0.93298,R,ugm-3,8.02581,R,ugm-3,9.45636,R,ugm-3
04-01-2014,06:00,0.62209,R,ugm-3,10.39348,R,ugm-3,11.34734,R,ugm-3
04-01-2014,07:00,0.88870,R,ugm-3,15.30813,R,ugm-3,16.67078,R,ugm-3
04-01-2014,08:00,1.15531,R,ugm-3,17.00117,R,ugm-3,18.77262,R,ugm-3
04-01-2014,09:00,2.31062,R,ugm-3,22.93422,R,ugm-3,26.47713,R,ugm-3
04-01-2014,10:00,1.77709,R,ugm-3,22.35139,R,ugm-3,25.07622,R,ugm-3
04-01-2014,11:00,1.99942,R,ugm-3,23.69157,R,ugm-3,26.75731,R,ugm-3
04-01-2014,12:00,32.17067,R,ugm-3,39.41949,R,ugm-3,88.74717,R,ugm-3
04-01-2014,13:00,3.28851,R,ugm-3,20.94379,R,ugm-3,25.98609,R,ugm-3
04-01-2014,14:00,8.22033,R,ugm-3,44.62293,R,ugm-3,57.22726,R,ugm-3
04-01-2014,15:00,7.06533,R,ugm-3,44.92319,R,ugm-3,55.75655,R,ugm-3
04-01-2014,16:00,3.37769,R,ugm-3,44.27294,R,ugm-3,49.45199,R,ugm-3
04-01-2014,17:00,5.99889,R,ugm-3,52.37238,R,ugm-3,61.57055,R,ugm-3
04-01-2014,18:00,3.06586,R,ugm-3,40.54835,R,ugm-3,45.24927,R,ugm-3
04-01-2014,19:00,5.11019,R,ugm-3,49.88183,R,ugm-3,57.71734,R,ugm-3
04-01-2014,20:00,5.90971,R,ugm-3,48.79600,R,ugm-3,57.85743,R,ugm-3
04-01-2014,21:00,1.82168,R,ugm-3,38.25335,R,ugm-3,41.04655,R,ugm-3
04-01-2014,22:00,1.02185,R,ugm-3,29.46254,R,ugm-3,31.02936,R,ugm-3
04-01-2014,23:00,0.84442,R,ugm-3,25.60264,R,ugm-3,26.89740,R,ugm-3
04-01-2014,24:00,0.88839,R,ugm-3,25.88569,R,ugm-3,27.24787,R,ugm-3
05-01-2014,01:00,1.00948,R,ugm-3,17.66321,R,ugm-3,19.21106,R,ugm-3
05-01-2014,02:00,0.59330,R,ugm-3,12.67860,R,ugm-3,13.58831,R,ugm-3
05-01-2014,03:00,0.44529,R,ugm-3,11.12501,R,ugm-3,11.80778,R,ugm-3
05-01-2014,04:00,0.40070,R,ugm-3,7.39803,R,ugm-3,8.01242,R,ugm-3
05-01-2014,05:00,0.57875,R,ugm-3,6.84388,R,ugm-3,7.73128,R,ugm-3
05-01-2014,06:00,0.40101,R,ugm-3,9.29523,R,ugm-3,9.91010,R,ugm-3
05-01-2014,07:00,0.71252,R,ugm-3,18.79796,R,ugm-3,19.89048,R,ugm-3
05-01-2014,08:00,0.80139,R,ugm-3,19.99710,R,ugm-3,21.22588,R,ugm-3
05-01-2014,09:00,0.75680,R,ugm-3,17.32438,R,ugm-3,18.48479,R,ugm-3
05-01-2014,10:00,1.69196,R,ugm-3,17.78816,R,ugm-3,20.38247,R,ugm-3
05-01-2014,11:00,1.91492,R,ugm-3,13.36981,R,ugm-3,16.30598,R,ugm-3
05-01-2014,12:00,1.82574,R,ugm-3,18.56703,R,ugm-3,21.36645,R,ugm-3
05-01-2014,13:00,1.73655,R,ugm-3,19.82832,R,ugm-3,22.49100,R,ugm-3
05-01-2014,14:00,4.80897,R,ugm-3,31.98561,R,ugm-3,39.35925,R,ugm-3
05-01-2014,15:00,8.90572,R,ugm-3,41.23685,R,ugm-3,54.89210,R,ugm-3
05-01-2014,16:00,8.14892,R,ugm-3,42.95953,R,ugm-3,55.45437,R,ugm-3
05-01-2014,17:00,7.52527,R,ugm-3,36.18450,R,ugm-3,47.72309,R,ugm-3
05-01-2014,18:00,10.15271,R,ugm-3,37.56772,R,ugm-3,53.13499,R,ugm-3
05-01-2014,19:00,18.30101,R,ugm-3,44.19118,R,ugm-3,72.25234,R,ugm-3
05-01-2014,20:00,15.54042,R,ugm-3,42.66070,R,ugm-3,66.48902,R,ugm-3
05-01-2014,21:00,9.97466,R,ugm-3,36.71618,R,ugm-3,52.01044,R,ugm-3
05-01-2014,22:00,15.27319,R,ugm-3,40.96193,R,ugm-3,64.38049,R,ugm-3
05-01-2014,23:00,16.38672,R,ugm-3,40.44938,R,ugm-3,65.57532,R,ugm-3
05-01-2014,24:00,0.84629,R,ugm-3,7.76905,R,ugm-3,9.06668,R,ugm-3
06-01-2014,01:00,0.29727,R,ugm-3,4.90365,R,ugm-3,5.35946,R,ugm-3
06-01-2014,02:00,0.35673,R,ugm-3,2.55574,R,ugm-3,3.10271,R,ugm-3
06-01-2014,03:00,0.17836,R,ugm-3,3.74563,R,ugm-3,4.01912,R,ugm-3
06-01-2014,04:00,0.31214,R,ugm-3,3.75328,R,ugm-3,4.23188,R,ugm-3
06-01-2014,05:00,0.31214,R,ugm-3,3.32966,R,ugm-3,3.80827,R,ugm-3
06-01-2014,06:00,0.35673,R,ugm-3,6.22328,R,ugm-3,6.77025,R,ugm-3
06-01-2014,07:00,1.11571,R,ugm-3,11.68872,R,ugm-3,13.39945,R,ugm-3
06-01-2014,08:00,5.35466,R,ugm-3,19.08197,R,ugm-3,27.29233,R,ugm-3
06-01-2014,09:00,4.72976,R,ugm-3,23.49602,R,ugm-3,30.74822,R,ugm-3
06-01-2014,10:00,1.65111,R,ugm-3,19.04802,R,ugm-3,21.57969,R,ugm-3
06-01-2014,11:00,8.07658,R,ugm-3,27.39130,R,ugm-3,39.77522,R,ugm-3
06-01-2014,12:00,4.64058,R,ugm-3,22.99829,R,ugm-3,30.11375,R,ugm-3
06-01-2014,13:00,3.97109,R,ugm-3,18.17066,R,ugm-3,24.25958,R,ugm-3
06-01-2014,14:00,5.75598,R,ugm-3,24.67364,R,ugm-3,33.49935,R,ugm-3
06-01-2014,15:00,3.43600,R,ugm-3,17.51037,R,ugm-3,22.77883,R,ugm-3
06-01-2014,16:00,6.64842,R,ugm-3,26.47808,R,ugm-3,36.67219,R,ugm-3
06-01-2014,17:00,0.98163,R,ugm-3,18.94618,R,ugm-3,20.45132,R,ugm-3
06-01-2014,18:00,4.23895,R,ugm-3,20.86346,R,ugm-3,27.36309,R,ugm-3
06-01-2014,19:00,0.66949,R,ugm-3,13.21968,R,ugm-3,14.24621,R,ugm-3
06-01-2014,20:00,0.66887,R,ugm-3,8.84770,R,ugm-3,9.87328,R,ugm-3
06-01-2014,21:00,0.40132,R,ugm-3,8.97584,R,ugm-3,9.59119,R,ugm-3
06-01-2014,22:00,0.53509,R,ugm-3,8.27778,R,ugm-3,9.09824,R,ugm-3
06-01-2014,23:00,0.35673,R,ugm-3,6.36384,R,ugm-3,6.91082,R,ugm-3
06-01-2014,24:00,0.22296,R,ugm-3,4.17164,R,ugm-3,4.51350,R,ugm-3
07-01-2014,01:00,0.35756,R,ugm-3,3.60315,R,ugm-3,4.15140,R,ugm-3
07-01-2014,02:00,0.17878,R,ugm-3,4.53773,R,ugm-3,4.81185,R,ugm-3
07-01-2014,03:00,0.31276,R,ugm-3,3.83695,R,ugm-3,4.31651,R,ugm-3
07-01-2014,04:00,0.26817,R,ugm-3,4.11761,R,ugm-3,4.52880,R,ugm-3
07-01-2014,05:00,0.31276,R,ugm-3,2.42170,R,ugm-3,2.90126,R,ugm-3
07-01-2014,06:00,0.26817,R,ugm-3,3.97609,R,ugm-3,4.38728,R,ugm-3
07-01-2014,07:00,1.92147,R,ugm-3,10.56943,R,ugm-3,13.51564,R,ugm-3
07-01-2014,08:00,5.18316,R,ugm-3,21.56057,R,ugm-3,29.50796,R,ugm-3
07-01-2014,09:00,11.79665,R,ugm-3,32.86105,R,ugm-3,50.94900,R,ugm-3
07-01-2014,10:00,2.14504,R,ugm-3,23.03463,R,ugm-3,26.32365,R,ugm-3
07-01-2014,11:00,1.92147,R,ugm-3,20.40542,R,ugm-3,23.35163,R,ugm-3
07-01-2014,12:00,3.17251,R,ugm-3,19.61938,R,ugm-3,24.48383,R,ugm-3
07-01-2014,13:00,2.45781,R,ugm-3,14.62967,R,ugm-3,18.39825,R,ugm-3
07-01-2014,14:00,1.60839,R,ugm-3,13.95073,R,ugm-3,16.41690,R,ugm-3
07-01-2014,15:00,1.92147,R,ugm-3,16.37196,R,ugm-3,19.31816,R,ugm-3
07-01-2014,16:00,5.40673,R,ugm-3,24.54359,R,ugm-3,32.83380,R,ugm-3
07-01-2014,17:00,1.11665,R,ugm-3,16.68608,R,ugm-3,18.39825,R,ugm-3
07-01-2014,18:00,0.75929,R,ugm-3,16.31410,R,ugm-3,17.47834,R,ugm-3
07-01-2014,19:00,0.89307,R,ugm-3,18.01958,R,ugm-3,19.38893,R,ugm-3
07-01-2014,20:00,0.62552,R,ugm-3,15.24549,R,ugm-3,16.20461,R,ugm-3
07-01-2014,21:00,0.53634,R,ugm-3,7.81065,R,ugm-3,8.63303,R,ugm-3
07-01-2014,22:00,0.40257,R,ugm-3,5.25603,R,ugm-3,5.87329,R,ugm-3
07-01-2014,23:00,0.67011,R,ugm-3,3.57207,R,ugm-3,4.59956,R,ugm-3
07-01-2014,24:00,0.26817,R,ugm-3,2.98541,R,ugm-3,3.39660,R,ugm-3
08-01-2014,01:00,0.41826,R,ugm-3,1.34768,R,ugm-3,1.98900,R,ugm-3
08-01-2014,02:00,0.35839,R,ugm-3,4.18391,R,ugm-3,4.73344,R,ugm-3
08-01-2014,03:00,0.22389,R,ugm-3,2.00000,R,ugm-3,2.34329,R,ugm-3
08-01-2014,04:00,0.31338,R,ugm-3,1.29428,R,ugm-3,1.77480,R,ugm-3
08-01-2014,05:00,0.08981,R,ugm-3,1.56634,R,ugm-3,1.70404,R,ugm-3
08-01-2014,06:00,0.49237,R,ugm-3,2.93760,R,ugm-3,3.69256,R,ugm-3
08-01-2014,07:00,1.79144,R,ugm-3,10.03298,R,ugm-3,12.77980,R,ugm-3
08-01-2014,08:00,3.04497,R,ugm-3,23.58973,R,ugm-3,28.25862,R,ugm-3
08-01-2014,09:00,3.71633,R,ugm-3,30.72527,R,ugm-3,36.42356,R,ugm-3
08-01-2014,10:00,3.49275,R,ugm-3,27.16276,R,ugm-3,32.51824,R,ugm-3
08-01-2014,11:00,,,,,,,,,
08-01-2014,12:00,2.73159,R,ugm-3,15.62082,R,ugm-3,19.80920,R,ugm-3
08-01-2014,13:00,3.44785,R,ugm-3,16.15537,R,ugm-3,21.44199,R,ugm-3
08-01-2014,14:00,2.86567,R,ugm-3,18.39729,R,ugm-3,22.79126,R,ugm-3
08-01-2014,15:00,3.00038,R,ugm-3,19.04324,R,ugm-3,23.64376,R,ugm-3
08-01-2014,16:00,9.85086,R,ugm-3,32.60860,R,ugm-3,47.71305,R,ugm-3
08-01-2014,17:00,2.73159,R,ugm-3,49.77329,R,ugm-3,53.96167,R,ugm-3
08-01-2014,18:00,2.14941,R,ugm-3,39.87323,R,ugm-3,43.16895,R,ugm-3
08-01-2014,19:00,1.52233,R,ugm-3,31.81778,R,ugm-3,34.15199,R,ugm-3
08-01-2014,20:00,1.34334,R,ugm-3,32.02099,R,ugm-3,34.08075,R,ugm-3
08-01-2014,21:00,1.61182,R,ugm-3,38.78072,R,ugm-3,41.25215,R,ugm-3
08-01-2014,22:00,0.80576,R,ugm-3,19.99375,R,ugm-3,21.22923,R,ugm-3
08-01-2014,23:00,0.76117,R,ugm-3,20.13289,R,ugm-3,21.29999,R,ugm-3
08-01-2014,24:00,0.13471,R,ugm-3,9.94643,R,ugm-3,10.15298,R,ugm-3
09-01-2014,01:00,0.47688,R,ugm-3,15.95280,R,ugm-3,16.68401,R,ugm-3
09-01-2014,02:00,0.53634,R,ugm-3,24.86760,R,ugm-3,25.68998,R,ugm-3
09-01-2014,03:00,0.93953,R,ugm-3,16.19170,R,ugm-3,17.63229,R,ugm-3
09-01-2014,04:00,0.71657,R,ugm-3,6.50872,R,ugm-3,7.60745,R,ugm-3
09-01-2014,05:00,0.84972,R,ugm-3,8.43699,R,ugm-3,9.73988,R,ugm-3
09-01-2014,06:00,0.93922,R,ugm-3,8.37101,R,ugm-3,9.81113,R,ugm-3
09-01-2014,07:00,27.69848,R,ugm-3,45.26362,R,ugm-3,87.73403,R,ugm-3
09-01-2014,08:00,20.49439,R,ugm-3,49.76851,R,ugm-3,81.19280,R,ugm-3
09-01-2014,09:00,9.12837,R,ugm-3,44.23182,R,ugm-3,58.22845,R,ugm-3
09-01-2014,10:00,10.33638,R,ugm-3,40.38913,R,ugm-3,56.23802,R,ugm-3
09-01-2014,11:00,10.96314,R,ugm-3,32.67363,R,ugm-3,49.48355,R,ugm-3
09-01-2014,12:00,11.58929,R,ugm-3,26.87875,R,ugm-3,44.64875,R,ugm-3
09-01-2014,13:00,10.02330,R,ugm-3,23.87708,R,ugm-3,39.24593,R,ugm-3
09-01-2014,14:00,6.89133,R,ugm-3,20.78696,R,ugm-3,31.35353,R,ugm-3
09-01-2014,15:00,7.24931,R,ugm-3,22.65595,R,ugm-3,33.77140,R,ugm-3
09-01-2014,16:00,11.27622,R,ugm-3,32.97580,R,ugm-3,50.26576,R,ugm-3
09-01-2014,17:00,10.33669,R,ugm-3,51.19523,R,ugm-3,67.04460,R,ugm-3
09-01-2014,18:00,12.70812,R,ugm-3,63.69868,R,ugm-3,83.18419,R,ugm-3
09-01-2014,19:00,10.82875,R,ugm-3,68.85526,R,ugm-3,85.45911,R,ugm-3
09-01-2014,20:00,4.69827,R,ugm-3,44.55503,R,ugm-3,51.75894,R,ugm-3
09-01-2014,21:00,0.93984,R,ugm-3,24.72241,R,ugm-3,26.16348,R,ugm-3
09-01-2014,22:00,0.53665,R,ugm-3,18.37291,R,ugm-3,19.19576,R,ugm-3
09-01-2014,23:00,0.67105,R,ugm-3,17.59883,R,ugm-3,18.62775,R,ugm-3
09-01-2014,24:00,0.58124,R,ugm-3,7.71168,R,ugm-3,8.60290,R,ugm-3
10-01-2014,01:00,0.17836,R,ugm-3,4.75384,R,ugm-3,5.02733,R,ugm-3
10-01-2014,02:00,0.41743,R,ugm-3,6.47381,R,ugm-3,7.11386,R,ugm-3
10-01-2014,03:00,0.26848,R,ugm-3,5.42242,R,ugm-3,5.83408,R,ugm-3
10-01-2014,04:00,0.22327,R,ugm-3,5.06478,R,ugm-3,5.40712,R,ugm-3
10-01-2014,05:00,0.40257,R,ugm-3,6.92421,R,ugm-3,7.54147,R,ugm-3
10-01-2014,06:00,0.35766,R,ugm-3,11.97273,R,ugm-3,12.52114,R,ugm-3
10-01-2014,07:00,1.65454,R,ugm-3,24.56893,R,ugm-3,27.10586,R,ugm-3
10-01-2014,08:00,14.71128,R,ugm-3,44.67504,R,ugm-3,67.23203,R,ugm-3
10-01-2014,09:00,26.82974,R,ugm-3,77.10435,R,ugm-3,118.24270,R,ugm-3
10-01-2014,10:00,9.47979,R,ugm-3,43.51894,R,ugm-3,58.05442,R,ugm-3
10-01-2014,11:00,4.20309,R,ugm-3,25.92633,R,ugm-3,32.37098,R,ugm-3
10-01-2014,12:00,4.06900,R,ugm-3,26.55937,R,ugm-3,32.79842,R,ugm-3
10-01-2014,13:00,3.21928,R,ugm-3,24.87302,R,ugm-3,29.80918,R,ugm-3
10-01-2014,14:00,6.70736,R,ugm-3,35.17709,R,ugm-3,45.46156,R,ugm-3
10-01-2014,15:00,8.76447,R,ugm-3,46.39438,R,ugm-3,59.83304,R,ugm-3
10-01-2014,16:00,11.35791,R,ugm-3,55.15268,R,ugm-3,72.56790,R,ugm-3
10-01-2014,17:00,2.05680,R,ugm-3,39.24833,R,ugm-3,42.40204,R,ugm-3
10-01-2014,18:00,1.34147,R,ugm-3,32.16395,R,ugm-3,34.22084,R,ugm-3
10-01-2014,19:00,1.38606,R,ugm-3,29.88998,R,ugm-3,32.01525,R,ugm-3
10-01-2014,20:00,0.93891,R,ugm-3,24.67029,R,ugm-3,26.10993,R,ugm-3
10-01-2014,21:00,0.84972,R,ugm-3,22.88641,R,ugm-3,24.18930,R,ugm-3
10-01-2014,22:00,1.02871,R,ugm-3,19.97989,R,ugm-3,21.55722,R,ugm-3
10-01-2014,23:00,1.07330,R,ugm-3,19.05758,R,ugm-3,20.70329,R,ugm-3
10-01-2014,24:00,1.65423,R,ugm-3,14.04014,R,ugm-3,16.57659,R,ugm-3
11-01-2014,01:00,1.78738,R,ugm-3,20.62631,R,ugm-3,23.36693,R,ugm-3
11-01-2014,02:00,0.95294,R,ugm-3,26.75014,R,ugm-3,28.21129,R,ugm-3
11-01-2014,03:00,0.84879,R,ugm-3,21.92299,R,ugm-3,23.22444,R,ugm-3
11-01-2014,04:00,0.40225,R,ugm-3,14.48623,R,ugm-3,15.10301,R,ugm-3
11-01-2014,05:00,0.44685,R,ugm-3,11.78196,R,ugm-3,12.46711,R,ugm-3
11-01-2014,06:00,0.71470,R,ugm-3,13.72219,R,ugm-3,14.81805,R,ugm-3
11-01-2014,07:00,0.80420,R,ugm-3,20.35283,R,ugm-3,21.58591,R,ugm-3
11-01-2014,08:00,1.25104,R,ugm-3,22.08985,R,ugm-3,24.00809,R,ugm-3
11-01-2014,09:00,2.05555,R,ugm-3,31.61363,R,ugm-3,34.76543,R,ugm-3
11-01-2014,10:00,2.72566,R,ugm-3,30.51489,R,ugm-3,34.69418,R,ugm-3
11-01-2014,11:00,3.26200,R,ugm-3,21.21488,R,ugm-3,26.21655,R,ugm-3
11-01-2014,12:00,4.20060,R,ugm-3,20.91558,R,ugm-3,27.35640,R,ugm-3
11-01-2014,13:00,4.02161,R,ugm-3,16.98683,R,ugm-3,23.15320,R,ugm-3
11-01-2014,14:00,4.20060,R,ugm-3,15.78625,R,ugm-3,22.22708,R,ugm-3
11-01-2014,15:00,2.41321,R,ugm-3,13.11258,R,ugm-3,16.81279,R,ugm-3
11-01-2014,16:00,5.49623,R,ugm-3,24.05829,R,ugm-3,32.48573,R,ugm-3
11-01-2014,17:00,14.70130,R,ugm-3,54.25571,R,ugm-3,76.79739,R,ugm-3
11-01-2014,18:00,9.87519,R,ugm-3,58.87727,R,ugm-3,74.01901,R,ugm-3
11-01-2014,19:00,3.39609,R,ugm-3,41.31287,R,ugm-3,46.52013,R,ugm-3
11-01-2014,20:00,3.21741,R,ugm-3,40.73195,R,ugm-3,45.66524,R,ugm-3
11-01-2014,21:00,2.01034,R,ugm-3,37.73841,R,ugm-3,40.82088,R,ugm-3
11-01-2014,22:00,1.34054,R,ugm-3,27.01072,R,ugm-3,29.06618,R,ugm-3
11-01-2014,23:00,1.02778,R,ugm-3,28.20268,R,ugm-3,29.77858,R,ugm-3
11-01-2014,24:00,0.71470,R,ugm-3,20.41881,R,ugm-3,21.51467,R,ugm-3
12-01-2014,01:00,0.47647,R,ugm-3,16.96069,R,ugm-3,17.69126,R,ugm-3
12-01-2014,02:00,0.77416,R,ugm-3,25.06459,R,ugm-3,26.25161,R,ugm-3
12-01-2014,03:00,0.58062,R,ugm-3,12.66362,R,ugm-3,13.55389,R,ugm-3
12-01-2014,04:00,0.84848,R,ugm-3,18.17353,R,ugm-3,19.47451,R,ugm-3
12-01-2014,05:00,1.16092,R,ugm-3,20.54838,R,ugm-3,22.32844,R,ugm-3
12-01-2014,06:00,2.59002,R,ugm-3,25.06236,R,ugm-3,29.03366,R,ugm-3
12-01-2014,07:00,2.85788,R,ugm-3,29.43146,R,ugm-3,33.81348,R,ugm-3
12-01-2014,08:00,11.92232,R,ugm-3,40.85722,R,ugm-3,59.13785,R,ugm-3
12-01-2014,09:00,4.42074,R,ugm-3,42.65783,R,ugm-3,49.43621,R,ugm-3
12-01-2014,10:00,26.88150,R,ugm-3,54.30161,R,ugm-3,95.51933,R,ugm-3
12-01-2014,11:00,24.82751,R,ugm-3,52.17252,R,ugm-3,90.24083,R,ugm-3
12-01-2014,12:00,10.94038,R,ugm-3,48.28393,R,ugm-3,65.05895,R,ugm-3
12-01-2014,13:00,11.38660,R,ugm-3,52.80699,R,ugm-3,70.26621,R,ugm-3
12-01-2014,14:00,7.72515,R,ugm-3,45.72309,R,ugm-3,57.56816,R,ugm-3
12-01-2014,15:00,3.61686,R,ugm-3,41.39319,R,ugm-3,46.93897,R,ugm-3
12-01-2014,16:00,1.51796,R,ugm-3,30.27344,R,ugm-3,32.60095,R,ugm-3
12-01-2014,17:00,0.98225,R,ugm-3,29.24021,R,ugm-3,30.74631,R,ugm-3
12-01-2014,18:00,1.42878,R,ugm-3,28.41258,R,ugm-3,30.60335,R,ugm-3
12-01-2014,19:00,6.78750,R,ugm-3,30.96768,R,ugm-3,41.37503,R,ugm-3
12-01-2014,20:00,6.74228,R,ugm-3,41.16656,R,ugm-3,51.50458,R,ugm-3
12-01-2014,21:00,8.52873,R,ugm-3,44.13476,R,ugm-3,57.21196,R,ugm-3
12-01-2014,22:00,5.35840,R,ugm-3,39.86463,R,ugm-3,48.08073,R,ugm-3
12-01-2014,23:00,5.26891,R,ugm-3,39.78765,R,ugm-3,47.86653,R,ugm-3
12-01-2014,24:00,0.80389,R,ugm-3,21.73748,R,ugm-3,22.97008,R,ugm-3
13-01-2014,01:00,0.29727,R,ugm-3,21.24469,R,ugm-3,21.70050,R,ugm-3
13-01-2014,02:00,0.53634,R,ugm-3,19.54575,R,ugm-3,20.36813,R,ugm-3
13-01-2014,03:00,0.40194,R,ugm-3,16.37291,R,ugm-3,16.98922,R,ugm-3
13-01-2014,04:00,0.31276,R,ugm-3,8.51493,R,ugm-3,8.99449,R,ugm-3
13-01-2014,05:00,2.59002,R,ugm-3,16.23043,R,ugm-3,20.20174,R,ugm-3
13-01-2014,06:00,0.49112,R,ugm-3,13.16708,R,ugm-3,13.92013,R,ugm-3
13-01-2014,07:00,7.09994,R,ugm-3,31.01645,R,ugm-3,41.90288,R,ugm-3
13-01-2014,08:00,4.28666,R,ugm-3,31.33249,R,ugm-3,37.90527,R,ugm-3
13-01-2014,09:00,7.81434,R,ugm-3,42.41256,R,ugm-3,54.39437,R,ugm-3
13-01-2014,10:00,4.46502,R,ugm-3,33.34300,R,ugm-3,40.18928,R,ugm-3
13-01-2014,11:00,5.40330,R,ugm-3,30.11948,R,ugm-3,38.40443,R,ugm-3
13-01-2014,12:00,5.17973,R,ugm-3,26.89310,R,ugm-3,34.83523,R,ugm-3
13-01-2014,13:00,5.71575,R,ugm-3,23.57252,R,ugm-3,32.33655,R,ugm-3
13-01-2014,14:00,7.50157,R,ugm-3,30.97150,R,ugm-3,42.47376,R,ugm-3
13-01-2014,15:00,6.29606,R,ugm-3,39.60070,R,ugm-3,49.25453,R,ugm-3
13-01-2014,16:00,15.09264,R,ugm-3,64.87439,R,ugm-3,88.01612,R,ugm-3
13-01-2014,17:00,10.93976,R,ugm-3,69.95734,R,ugm-3,86.73140,R,ugm-3
13-01-2014,18:00,7.85893,R,ugm-3,63.18852,R,ugm-3,75.23871,R,ugm-3
13-01-2014,19:00,5.76034,R,ugm-3,57.55430,R,ugm-3,66.38670,R,ugm-3
13-01-2014,20:00,1.78613,R,ugm-3,50.44267,R,ugm-3,53.18137,R,ugm-3
13-01-2014,21:00,1.33960,R,ugm-3,44.13142,R,ugm-3,46.18544,R,ugm-3
13-01-2014,22:00,0.98256,R,ugm-3,32.97150,R,ugm-3,34.47807,R,ugm-3
13-01-2014,23:00,1.11602,R,ugm-3,27.91294,R,ugm-3,29.62415,R,ugm-3
13-01-2014,24:00,2.09889,R,ugm-3,27.61985,R,ugm-3,30.83811,R,ugm-3
14-01-2014,01:00,0.95211,R,ugm-3,22.55730,R,ugm-3,24.01718,R,ugm-3
14-01-2014,02:00,1.72543,R,ugm-3,37.28801,R,ugm-3,39.93364,R,ugm-3
14-01-2014,03:00,1.42785,R,ugm-3,30.47664,R,ugm-3,32.66598,R,ugm-3
14-01-2014,04:00,1.20489,R,ugm-3,23.31385,R,ugm-3,25.16133,R,ugm-3
14-01-2014,05:00,1.33835,R,ugm-3,25.61029,R,ugm-3,27.66240,R,ugm-3
14-01-2014,06:00,0.89244,R,ugm-3,28.43840,R,ugm-3,29.80679,R,ugm-3
14-01-2014,07:00,12.00339,R,ugm-3,49.14360,R,ugm-3,67.54854,R,ugm-3
14-01-2014,08:00,37.70588,R,ugm-3,60.12613,R,ugm-3,117.94101,R,ugm-3
14-01-2014,09:00,50.64631,R,ugm-3,66.94658,R,ugm-3,144.60317,R,ugm-3
14-01-2014,10:00,36.72425,R,ugm-3,64.63389,R,ugm-3,120.94363,R,ugm-3
14-01-2014,11:00,40.07076,R,ugm-3,57.14454,R,ugm-3,118.58552,R,ugm-3
14-01-2014,12:00,26.99625,R,ugm-3,45.95451,R,ugm-3,87.34818,R,ugm-3
14-01-2014,13:00,16.50989,R,ugm-3,38.08792,R,ugm-3,63.40272,R,ugm-3
14-01-2014,14:00,20.57078,R,ugm-3,49.80198,R,ugm-3,81.34341,R,ugm-3
14-01-2014,15:00,23.33761,R,ugm-3,48.84812,R,ugm-3,84.63195,R,ugm-3
14-01-2014,16:00,22.35567,R,ugm-3,57.50170,R,ugm-3,91.77992,R,ugm-3
14-01-2014,17:00,10.70932,R,ugm-3,61.84977,R,ugm-3,78.27050,R,ugm-3
14-01-2014,18:00,20.39242,R,ugm-3,71.66281,R,ugm-3,102.93075,R,ugm-3
14-01-2014,19:00,7.94281,R,ugm-3,70.30924,R,ugm-3,82.48804,R,ugm-3
14-01-2014,20:00,6.73792,R,ugm-3,51.85553,R,ugm-3,62.18685,R,ugm-3
14-01-2014,21:00,9.46015,R,ugm-3,58.47564,R,ugm-3,72.98100,R,ugm-3
14-01-2014,22:00,7.00546,R,ugm-3,45.29852,R,ugm-3,56.04008,R,ugm-3
14-01-2014,23:00,4.23926,R,ugm-3,42.53543,R,ugm-3,49.03554,R,ugm-3
14-01-2014,24:00,2.98978,R,ugm-3,36.58899,R,ugm-3,41.17326,R,ugm-3
15-01-2014,01:00,5.05364,R,ugm-3,38.98249,R,ugm-3,46.73130,R,ugm-3
15-01-2014,02:00,2.91328,R,ugm-3,33.87229,R,ugm-3,38.33925,R,ugm-3
15-01-2014,03:00,2.05119,R,ugm-3,31.75993,R,ugm-3,34.90504,R,ugm-3
15-01-2014,04:00,1.02559,R,ugm-3,21.96028,R,ugm-3,23.53283,R,ugm-3
15-01-2014,05:00,0.62427,R,ugm-3,15.13648,R,ugm-3,16.09369,R,ugm-3
15-01-2014,06:00,1.20396,R,ugm-3,23.76090,R,ugm-3,25.60694,R,ugm-3
15-01-2014,07:00,2.67546,R,ugm-3,25.50940,R,ugm-3,29.61172,R,ugm-3
15-01-2014,08:00,24.65881,R,ugm-3,62.25761,R,ugm-3,100.06726,R,ugm-3
15-01-2014,09:00,63.58673,R,ugm-3,85.54087,R,ugm-3,183.03916,R,ugm-3
15-01-2014,10:00,52.43899,R,ugm-3,73.23584,R,ugm-3,153.64117,R,ugm-3
15-01-2014,11:00,9.31951,R,ugm-3,48.79744,R,ugm-3,63.08716,R,ugm-3
15-01-2014,12:00,4.81583,R,ugm-3,38.82327,R,ugm-3,46.20743,R,ugm-3
15-01-2014,13:00,3.83482,R,ugm-3,27.59498,R,ugm-3,33.47497,R,ugm-3
15-01-2014,14:00,4.36992,R,ugm-3,31.99565,R,ugm-3,38.69609,R,ugm-3
15-01-2014,15:00,11.37070,R,ugm-3,58.16964,R,ugm-3,75.60447,R,ugm-3
15-01-2014,16:00,17.65803,R,ugm-3,58.61430,R,ugm-3,85.68956,R,ugm-3
15-01-2014,17:00,11.59365,R,ugm-3,58.54354,R,ugm-3,76.32023,R,ugm-3
15-01-2014,18:00,13.73402,R,ugm-3,60.19642,R,ugm-3,81.25495,R,ugm-3
15-01-2014,19:00,2.76464,R,ugm-3,30.88162,R,ugm-3,35.12067,R,ugm-3